Regional Weather Roundup
Issued by NWS Jackson, KY

Home | Current Version | Previous Version | Text Only | Print | Product List | Glossary On
Versions: 1 2 3 4 5 6 7 8 9 10 11 12 13 14 15 16 17 18 19 20 21 22 23 24 25 26 27 28 29 30 31 32 33 34 35 36 37 38 39 40 41 42 43 44 45 46 47 48 49 50
000
ASUS43 KJKL 281810
RWRJKL

EAST KENTUCKY HOURLY WEATHER ROUNDUP
NATIONAL WEATHER SERVICE JACKSON KY
100 PM EST SAT FEB 28 2015

NOTE: "FAIR" INDICATES FEW OR NO CLOUDS BELOW 12,000 FEET WITH
NO SIGNIFICANT WEATHER AND/OR OBSTRUCTIONS TO VISIBILITY.

* THESE REPORTS ARE NOT UNDER NWS QUALITY CONTROL AND MAY NOT
  REPORT WEATHER SUCH AS PRECIPITATION AND FOG.

KYZ079-080-083-085-087-088-110-112-115-119-120-281900
...EASTERN KENTUCKY...

CITY           SKY/WX    TMP DP  RH WIND       PRES   REMARKS
JACKSON        CLOUDY    34  12  40 CALM      30.59F
6HR MIN TEMP:  17; 6HR MAX TEMP:  35;

LONDON         MOSUNNY   35  14  42 VRB6      30.58F WCI  30
6HR MIN TEMP:  21; 6HR MAX TEMP:  35;

SOMERSET*      CLOUDY    36  14  41 CALM      30.59F
MONTICELLO*    PTSUNNY   39  18  43 VRB5      30.59F
6HR MIN TEMP:  21; 6HR MAX TEMP:  39;

MIDDLESBORO*   SUNNY     38  20  49 NE6       30.58F WCI  33
6HR MIN TEMP:  19; 6HR MAX TEMP:  38;

HAZARD APT*    PTCLDY    36  14  41 CALM      30.59
BLACK MTN*       N/A     36  23  60 S6          N/A  WCI  31
PIKEVILLE APT* MOSUNNY   32  14  47 CALM      30.59F
BIG SANDY*     PTCLDY    35  14  43 CALM      30.62F
6HR MIN TEMP:  17; 6HR MAX TEMP:  35;

MOREHEAD APT*  PTCLDY    32   7  34 CALM      30.65F
$$

KYZ035-036-041-042-044-050-067-078-099-281900
...CENTRAL KENTUCKY...

CITY           SKY/WX    TMP DP  RH WIND       PRES   REMARKS
MT STERLING*   SUNNY     32  12  43 E7        30.63F WCI  26
FLEMING/MASON* MOSUNNY   27  10  50 E7        30.66F WCI  19
DANVILLE*      SUNNY     30  14  51 E6        30.61F WCI  24
RICHMOND*      MOSUNNY   32  14  47 E5        30.60F WCI  27
LEXINGTON      MOSUNNY   30  14  51 E10       30.61F WCI  21
6HR MIN TEMP:  16; 6HR MAX TEMP:  30;

FRANKFORT        N/A     28  11  48 NE8       30.61F WCI  20
6HR MIN TEMP:  16; 6HR MAX TEMP:  28;

$$

KYZ091>093-OHZ055-061-077-WVZ005-015-034-035-042-281900
...SOUTHERN OHIO/WEST VIRGINIA...

CITY           SKY/WX    TMP DP  RH WIND       PRES   REMARKS
COVINGTON      PTSUNNY   24   6  46 E6        30.65F WCI  17
COLUMBUS       CLOUDY    21   2  43 E6        30.71F WCI  13
DAYTON         CLOUDY    21   2  43 E7        30.69F WCI  12
WILMINGTON     CLOUDY    18   3  52 NE6       30.66F WCI  10
HUNTINGTON     SUNNY     31  10  41 VRB3      30.65F
CHARLESTON     MOSUNNY   33  11  39 N3        30.64F
PINEVILLE*     SUNNY     40  19  42 MISG      30.62F
BECKLEY        MOSUNNY   28  12  51 SE7       30.55F WCI  21
BLUEFIELD      MOSUNNY   35  13  40 CALM      30.54F
$$

VAZ002-007-008-TNZ017-027-036-066-071-281900
...SOUTHWEST VIRGINIA/EAST TENNESSEE...

CITY           SKY/WX    TMP DP  RH WIND       PRES   REMARKS
WISE*          MOSUNNY   41  18  38 E5        30.52F
JONESVILLE*    PTCLDY    39  18  41 NE3       30.59F
ABINGDON*      MOSUNNY   37  19  48 E10       30.56F WCI  30
BRISTOL        PTSUNNY   40  20  44 NE3       30.57F
KNOXVILLE      PTSUNNY   37  21  52 NE7       30.58F WCI  32
OAK RIDGE      SUNNY     41  20  43 CALM      30.59F
CROSSVILLE     MOSUNNY   43  27  53 S8        30.51F
NASHVILLE      CLOUDY    38  16  40 CALM      30.57F
$$

...KEY TO REMARKS...
VSB - VISIBILITY IN MILES
WCI - WIND CHILL INDEX
HX  - HEAT INDEX

$$


USA.gov is the U.S. government's official web portal to all federal, state and local government web resources and services.